Location: Poughquag
(41.6090°N, 73.6820°W)
Time: 04:09:04
(UTC-05:00)

DX 1 - Visible Passes

Search period start: 28 November 2020 00:00
Search period end: 08 December 2020 00:00
Orbit: 619 x 630 km, 98.5° (Epoch: 28 November)

Date Brightness Start Highest point End Pass type
(mag) Time Alt. Az. Time Alt. Az. Time Alt. Az.
28 Nov ? 04:18:03 10° E 04:20:25 15° ENE 04:22:48 10° NNE visible
28 Nov ? 05:51:51 10° S 05:56:06 55° W 06:00:22 10° NNW visible
28 Nov ? 17:42:45 22° E 17:43:30 23° E 17:47:01 10° SSE visible
28 Nov ? 19:20:01 31° W 19:20:01 31° W 19:23:32 10° SW visible
29 Nov ? 04:35:38 10° ESE 04:38:57 22° ENE 04:42:17 10° NNE visible
29 Nov ? 06:10:56 10° SSW 06:14:53 34° W 06:18:52 10° NNW visible
29 Nov ? 18:01:46 35° E 18:02:20 36° E 18:06:22 10° SSE visible
29 Nov ? 19:39:02 20° W 19:39:02 20° W 19:41:32 10° WSW visible
30 Nov ? 04:53:39 10° SE 04:57:31 33° ENE 05:01:26 10° N visible
30 Nov ? 06:30:20 10° SSW 06:33:43 22° W 06:37:07 10° NW visible
30 Nov ? 18:20:45 56° ENE 18:21:07 58° ESE 18:25:25 10° S visible
30 Nov ? 19:58:02 13° W 19:58:02 13° W 19:59:05 10° W visible
01 Dec ? 05:11:58 10° SSE 05:16:09 51° ENE 05:20:24 10° N visible
01 Dec ? 18:39:45 86° NNW 18:39:50 87° WNW 18:44:13 10° SSW visible
02 Dec ? 05:30:30 10° SSE 05:34:50 83° ENE 05:39:12 10° NNW visible
02 Dec ? 17:21:29 13° E 17:22:04 14° E 17:24:16 10° ESE visible
02 Dec ? 18:58:45 54° W 18:58:45 54° W 19:02:47 10° SSW visible
03 Dec ? 04:15:50 10° E 04:17:56 13° ENE 04:20:03 10° NNE visible
03 Dec ? 05:49:16 10° S 05:53:33 62° WSW 05:57:53 10° NNW visible
03 Dec ? 17:40:28 21° E 17:40:57 21° E 17:44:17 10° SE visible
03 Dec ? 19:17:44 33° W 19:17:44 33° W 19:21:08 10° SW visible
04 Dec ? 04:33:17 10° ESE 04:36:27 20° ENE 04:39:38 10° NNE visible
04 Dec ? 06:08:17 10° SSW 06:12:19 38° W 06:16:24 10° NNW visible
04 Dec ? 17:59:26 32° E 17:59:47 33° E 18:03:44 10° SSE visible
04 Dec ? 19:36:42 21° W 19:36:42 21° W 19:39:11 10° WSW visible
05 Dec ? 04:51:14 10° SE 04:55:01 30° ENE 04:58:50 10° N visible
05 Dec ? 06:27:36 10° SSW 06:31:08 24° W 06:34:43 10° NW visible
05 Dec ? 18:18:25 52° E 18:18:34 52° E 18:22:50 10° S visible
05 Dec ? 19:55:41 14° W 19:55:41 14° W 19:56:52 10° W visible
06 Dec ? 05:09:28 10° SE 05:13:38 47° ENE 05:17:49 10° N visible
06 Dec ? 18:37:22 84° SE 18:37:22 84° SE 18:41:41 10° SSW visible
07 Dec ? 05:27:58 10° SSE 05:32:17 75° ENE 05:36:40 10° N visible
07 Dec ? 17:19:05 12° E 17:19:29 12° E 17:21:17 10° ESE visible
07 Dec ? 18:56:20 58° W 18:56:20 58° W 19:00:18 10° SSW visible
